Tracking 17925 objects as of 20-January-2017
HD Live streaming from Space Station
objects crossing your sky now

SL-14 DEB

Track SL-14 DEB now!
10-day predictions


NORAD ID: 19450
Int'l Code: 1978-100AH
Perigee: 1,686.2 km
Apogee: 1,707.8 km
Inclination: 82.5 °
Period: 120.2 minutes
Semi major axis: 8067 km
RCS: 0.0566 m2 (small)
Launch date: October 26, 1978
Source: Commonwealth of Independent States (former USSR) (CIS)
Launch site: PLESETSK MISSILE AND SPACE COMPLEX (PKMTR)

Note: This is SATELLITE DEBRIS
Your satellite tracking list
Your tracking list is empty





NASA's NSSDC Master Catalog

Two Line Element Set (TLE):
1 19450U 78100AH  17018.75031346  .00000002  00000-0 -78982-4 0  9992
2 19450  82.5497 172.5433 0013373 302.1490 121.4345 11.98074326247179
Source of the keplerian elements: AFSPC